Calvi/Ste Cather, France

11:47 AM CET on February 22, 2017 (GMT +0100)
Saint Catherine

Weather History for LFKC - February, 2014

Change the Weather History Date:

Friday, February 21, 2014

  Actual Average Record
Temperature  
Mean Temperature 52 °F -  
Max Temperature 61 °F 58 °F 70 °F (2016)
Min Temperature 44 °F 44 °F 37 °F (1998)
Degree Days  
Heating Degree Days 12    
Growing Degree Days 2 (Base 50)    
Moisture  
Dew Point 46 °F    
Average Humidity 71    
Maximum Humidity 100    
Minimum Humidity 47    
Precipitation  
Precipitation 0.01 in - - ()
Sea Level Pressure  
Sea Level Pressure 29.91 in    
Wind  
Wind Speed 6 mph ()    
Max Wind Speed 15 mph    
Max Gust Speed -    
Visibility 9.2 miles    
Events      
Averages and records for this station are not official NWS values.
T = Trace of Precipitation, MM = Missing Value Source: Averaged Metar Reports

Daily Weather History Graph

Daily Weather History Graph

Search for Another Location

Airport or City:

Trip Planner

Search our weather history database for the weather conditions in past years. The results will help you decide how hot, cold, wet, or windy it might be!

Date:

Astronomy

Feb. 21, 2014 Rise Set
Actual Time 7:13 AM CET 6:04 PM CET
Civil Twilight 6:44 AM CET 6:32 PM CET
Nautical Twilight 6:11 AM CET 7:05 PM CET
Astronomical Twilight 5:39 AM CET 7:38 PM CET
Moon No Moon Rise 10:17 AM CET (2/21)
Length of Visible Light 11h 48m
Length of Day
10h 51m
Waning Gibbous, 63% of the Moon is Illuminated
Feb 21
Waning Gibbous
Feb 22
Last Quarter
Mar 1
New
Mar 8
First Quarter
Mar 16
Full

Hourly Weather History & Observations

Time (CET) Temp. Windchill Dew Point Humidity Pressure Visibility Wind Dir Wind Speed Gust Speed Precip Events Conditions
12:00 AM 51 °F - 48 °F 85% 29.95 in 37 mi SW 4.6 mph - -   Overcast
1:00 AM 51 °F - 49 °F 88% 29.95 in 37 mi SSW 3.5 mph - -   Overcast
2:00 AM 51 °F - 49 °F 88% 29.95 in 34 mi SSE 5.8 mph - -   Overcast
3:00 AM 51 °F - 48 °F 87% 29.94 in 37 mi SSW 4.6 mph - -   Overcast
4:00 AM 49 °F - 47 °F 92% 29.94 in 37 mi SW 5.8 mph - -  
6:00 AM 45 °F - 43 °F 91% 29.94 in 31 mi South 5.8 mph - -  
7:00 AM 44 °F - 42 °F 90% 29.93 in 12 mi SE 4.6 mph - -   Scattered Clouds
7:00 AM 44.6 °F 41.4 °F 42.8 °F 93% 29.92 in 6.2 mi SE 5.8 mph - N/A   Partly Cloudy
7:30 AM 44.6 °F 42.2 °F 42.8 °F 93% 29.92 in 6.2 mi SW 4.6 mph - N/A   Partly Cloudy
8:00 AM 45 °F - 44 °F 92% 29.94 in 16 mi South 3.5 mph - -   Scattered Clouds
8:00 AM 44.6 °F 43.1 °F 44.6 °F 100% 29.92 in 6.2 mi South 3.5 mph - N/A   Mostly Cloudy
8:30 AM 48.2 °F - 44.6 °F 87% 29.92 in 6.2 mi SSW 5.8 mph - N/A   Mostly Cloudy
9:00 AM 50 °F - 46 °F 81% 29.94 in 16 mi SW 2.3 mph - -   Scattered Clouds
9:00 AM 50.0 °F - 46.4 °F 87% 29.92 in 6.2 mi Variable 2.3 mph - N/A   Scattered Clouds
9:30 AM 53.6 °F - 48.2 °F 82% 29.92 in 6.2 mi ESE 3.5 mph - N/A   Scattered Clouds
10:00 AM 56 °F - 46 °F 61% 29.94 in 16 mi WSW 2.3 mph - -   Scattered Clouds
10:00 AM 55.4 °F - 46.4 °F 72% 29.92 in 6.2 mi Variable 2.3 mph - N/A   Scattered Clouds
10:30 AM 57.2 °F - 46.4 °F 67% 29.92 in 6.2 mi Calm Calm - N/A   Scattered Clouds
11:00 AM 58 °F - 47 °F 59% 29.94 in 16 mi NNE 2.3 mph - -   Scattered Clouds
11:00 AM 57.2 °F - 46.4 °F 67% 29.92 in 6.2 mi NNE 3.5 mph - N/A   Mostly Cloudy
11:30 AM 59.0 °F - 48.2 °F 67% 29.92 in 6.2 mi Variable 2.3 mph - N/A   Mostly Cloudy
12:00 PM 59 °F - 47 °F 56% 29.93 in 16 mi South 4.6 mph - -   Scattered Clouds
12:00 PM 59.0 °F - 48.2 °F 67% 29.92 in 6.2 mi South 4.6 mph - N/A   Mostly Cloudy
12:30 PM 60.8 °F - 46.4 °F 59% 29.92 in 6.2 mi South 5.8 mph - N/A   Mostly Cloudy
1:00 PM 60 °F - 46 °F 50% 29.90 in 16 mi SW 6.9 mph - -   Scattered Clouds
1:00 PM 60.8 °F - 46.4 °F 59% 29.89 in 6.2 mi SSW 6.9 mph - N/A   Mostly Cloudy
1:30 PM 60.8 °F - 44.6 °F 55% 29.89 in 6.2 mi SSW 12.7 mph - N/A   Mostly Cloudy
2:00 PM 60 °F - 45 °F 47% 29.88 in 16 mi SW 11.5 mph - -   Scattered Clouds
2:00 PM 60.8 °F - 44.6 °F 55% 29.86 in 6.2 mi SW 11.5 mph - N/A   Mostly Cloudy
2:30 PM 59.0 °F - 44.6 °F 59% 29.86 in 6.2 mi SW 12.7 mph - N/A   Mostly Cloudy
3:00 PM 58 °F - 46 °F 55% 29.88 in 16 mi SSW 8.1 mph - -   Scattered Clouds
3:00 PM 57.2 °F - 46.4 °F 67% 29.89 in 6.2 mi SW 9.2 mph - N/A   Mostly Cloudy
3:44 PM 57.2 °F - 46.4 °F 67% 29.86 in 6.2 mi SW 6.9 mph - N/A   Mostly Cloudy
4:00 PM 56 °F - 46 °F 61% 29.88 in 34 mi SSW 11.5 mph - -   Overcast
4:00 PM 57.2 °F - 46.4 °F 67% 29.86 in 6.2 mi SW 12.7 mph - N/A   Mostly Cloudy
4:30 PM 55.4 °F - 46.4 °F 72% 29.86 in 6.2 mi SW 15.0 mph - N/A   Mostly Cloudy
5:00 PM 56 °F - 45 °F 56% 29.88 in 16 mi SW 12.7 mph - -   Mostly Cloudy
5:00 PM 57.2 °F - 44.6 °F 63% 29.86 in 6.2 mi SW 13.8 mph - N/A   Mostly Cloudy
5:30 PM 57.2 °F - 44.6 °F 63% 29.89 in 6.2 mi SW 13.8 mph - N/A   Mostly Cloudy
6:00 PM 56 °F - 45 °F 56% 29.90 in 37 mi South 12.7 mph - -   Overcast
7:00 PM 56 °F - 45 °F 56% 29.90 in 37 mi SSW 11.5 mph - -   Overcast
8:00 PM 56 °F - 44 °F 55% 29.90 in 16 mi SSW 10.4 mph - -   Overcast
9:00 PM 54 °F - 46 °F 67% 29.91 in 37 mi SSW 9.2 mph - -   Overcast
10:00 PM 53 °F - 49 °F 83% 29.93 in 4 mi SW 9.2 mph - -   Overcast
11:00 PM 52 °F - 47 °F 79% 29.94 in 37 mi South 9.2 mph - -   Overcast